sat.trackr.live / text

‹ back to catalog

STARLINK-34669

NORAD 64811 · 2025-150X

PAYLOAD ACTIVE UNKNOWN

§ Identity

Operator
Country
US
Launch date
2025-07-16
Launch site
AFWTR
Launch vehicle
Mass (kg)
RCS (m²)

Purposes: comms

External: N2YO · Heavens-Above · Gunter

§ Orbital elements

Epoch: 2026-05-25T03:39:14.796576Z

Period
96.11 min
Inclination
70.0004°
Eccentricity
0.0002837
Mean motion
14.98327400 rev/d
Perigee alt
570.1 km
Apogee alt
574.0 km
Semi-major
6,950.2 km
B*
-1.8461e-4
RAAN
301.5216°
Arg perigee
266.7650°
Mean anomaly
93.3184°
Rev number
4,797

§ Raw data

STARLINK-346691 64811U 25150X   26145.15225459 -.00002295  00000+0 -18461-3 0  99962 64811  70.0004 301.5216 0002837 266.7650  93.3184 14.98327400 47976

JSON: /api/v1/satellites/64811 · /tle

For live sub-satellite position, see the globe view (requires WebGL).

§ Visibility from observer

Set your observer location to see the next 7 days of passes ≥ 10°. The values pass through the URL so the page stays shareable.

No JS? Fill the form by hand. The geolocation button needs JavaScript.